World > North America > United States > Tennessee   Town of Smyrna, Tennessee

Hourly Smyrna, TN Regional Weather

Feedback E-mail the Weather

Latest News

Smyrna, TN Weather Maps

°F °C°F °C
Smyrna Weather Map
UTC Time: 5/25/2022, 23:36
Your Time:

Smyrna, TN Regional Weather

Expires:202205260000;;580316
ASUS44 KMEG 252310
RWRTN 
TENNESSEE HOURLY STATE WEATHER ROUNDUP
NATIONAL WEATHER SERVICE MEMPHIS TN
600 PM CDT WED MAY 25 2022


TNZ008-025-027-028-033-062-065-066-260000-
NORTH MIDDLE TENNESSEE
  
CITY           SKY/WX    TMP DP  RH WIND       PRES   REMARKS
NASHVILLE      CLOUDY    75  63  66 S17G31    29.97R                  
DICKSON        PTSUNNY   73  66  78 S9G25     29.90S                  
PORTLAND       PTSUNNY   73  66  78 S15G22    29.94S                  
CLARKSVILLE    CLOUDY    77  66  68 SE14G30   29.88S                  
SMYRNA         CLOUDY    74  66  76 S14G24    29.99R                  
MURFREESBORO   PTSUNNY   73  66  78 S17G31    29.97R                  
COOKEVILLE     MOSUNNY   72  66  83 S13       30.01S                  
LIVINGSTON     MOSUNNY   73  63  68 S12G20    30.00S                  
CROSSVILLE     PTSUNNY   70  62  76 S9G30     30.06F                  
$$


SKY/WX - Weather  TMP - Temperature  DP - Dew Point  RH - Humidity
WIND - Wind Direction/Speed PRES - Barometric Pressure VSB - Visibility
WCI - Wind Chill Index E13G22 Wind - East Wind 13 mph/Gusts of 22 mph

Trending Headlines

Smyrna Radar Loop



Smyrna Quick Facts


National Two Day Weather Forecast


E-mail the Smyrna Weather Forecast

Voice your opinion or tell us about page issues...